TimeCST,TemperatureF,Dew PointF,Humidity,Sea Level PressureIn,VisibilityMPH,Wind Direction,Wind SpeedMPH,Gust SpeedMPH,PrecipitationIn,Events,Conditions,WindDirDegrees,DateUTC
12:11 AM,-0.4,-5.8,78,30.30,10.0,Calm,Calm,-,N/A,,Clear,0,2013-01-26 06:11:00
12:31 AM,-0.4,-5.8,78,30.30,10.0,Calm,Calm,-,N/A,,Clear,0,2013-01-26 06:31:00
12:51 AM,-0.4,-7.6,72,30.29,10.0,Calm,Calm,-,N/A,,Clear,0,2013-01-26 06:51:00
1:11 AM,-0.4,-5.8,78,30.29,10.0,Calm,Calm,-,N/A,,Clear,0,2013-01-26 07:11:00
1:31 AM,-2.2,-7.6,78,30.29,10.0,Calm,Calm,-,N/A,,Clear,0,2013-01-26 07:31:00
1:51 AM,-2.2,-7.6,78,30.30,10.0,Calm,Calm,-,N/A,,Clear,0,2013-01-26 07:51:00
2:11 AM,-2.2,-7.6,78,30.30,10.0,Calm,Calm,-,N/A,,Clear,0,2013-01-26 08:11:00
2:31 AM,-2.2,-7.6,78,30.29,10.0,Calm,Calm,-,N/A,,Clear,0,2013-01-26 08:31:00
2:51 AM,-2.2,-7.6,78,30.29,10.0,Calm,Calm,-,N/A,,Clear,0,2013-01-26 08:51:00
3:11 AM,-2.2,-7.6,78,30.29,10.0,Calm,Calm,-,N/A,,Clear,0,2013-01-26 09:11:00
3:30 AM,-2.2,-7.6,78,30.29,10.0,Calm,Calm,-,N/A,,Clear,0,2013-01-26 09:30:00
3:51 AM,-2.2,-7.6,78,30.28,10.0,Calm,Calm,-,N/A,,Clear,0,2013-01-26 09:51:00
4:11 AM,-2.2,-7.6,78,30.28,10.0,Calm,Calm,-,N/A,,Clear,0,2013-01-26 10:11:00
4:31 AM,-2.2,-7.6,78,30.27,10.0,Calm,Calm,-,N/A,,Clear,0,2013-01-26 10:31:00
4:51 AM,-2.2,-7.6,78,30.28,10.0,Calm,Calm,-,N/A,,Clear,0,2013-01-26 10:51:00
5:11 AM,-2.2,-7.6,78,30.27,10.0,Calm,Calm,-,N/A,,Clear,0,2013-01-26 11:11:00
5:30 AM,-2.2,-7.6,78,30.28,10.0,Calm,Calm,-,N/A,,Clear,0,2013-01-26 11:30:00
5:51 AM,-2.2,-7.6,78,30.28,10.0,Calm,Calm,-,N/A,,Clear,0,2013-01-26 11:51:00
6:11 AM,-2.2,-7.6,78,30.27,10.0,Calm,Calm,-,N/A,,Clear,0,2013-01-26 12:11:00
6:31 AM,-0.4,-5.8,78,30.26,10.0,Calm,Calm,-,N/A,,Clear,0,2013-01-26 12:31:00
6:51 AM,-2.2,-7.6,78,30.28,10.0,Calm,Calm,-,N/A,,Clear,0,2013-01-26 12:51:00
7:11 AM,-2.2,-7.6,78,30.28,10.0,Calm,Calm,-,N/A,,Clear,0,2013-01-26 13:11:00
7:31 AM,1.4,-5.8,72,30.27,10.0,ESE,5.8,-,N/A,,Clear,120,2013-01-26 13:31:00
7:51 AM,1.4,-5.8,72,30.29,10.0,East,4.6,-,N/A,,Clear,100,2013-01-26 13:51:00
8:11 AM,1.4,-5.8,72,30.28,10.0,ESE,5.8,-,N/A,,Clear,110,2013-01-26 14:11:00
8:30 AM,3.2,-4.0,72,30.26,10.0,SE,9.2,-,N/A,,Clear,130,2013-01-26 14:30:00
8:51 AM,3.2,-4.0,72,30.26,10.0,ESE,8.1,-,N/A,,Clear,120,2013-01-26 14:51:00
9:11 AM,5.0,-2.2,72,30.25,10.0,SE,10.4,-,N/A,,Clear,130,2013-01-26 15:11:00
9:31 AM,6.8,-0.4,72,30.24,10.0,SE,15.0,18.4,N/A,,Clear,140,2013-01-26 15:31:00
9:51 AM,8.6,1.4,73,30.25,10.0,SE,11.5,16.1,N/A,,Clear,140,2013-01-26 15:51:00
10:11 AM,10.4,3.2,73,30.25,10.0,SE,11.5,17.3,N/A,,Clear,140,2013-01-26 16:11:00
10:51 AM,10.4,3.2,73,30.23,10.0,SE,15.0,-,N/A,,Clear,140,2013-01-26 16:51:00
11:11 AM,12.2,5.0,73,30.23,10.0,SE,12.7,21.9,N/A,,Clear,140,2013-01-26 17:11:00
11:31 AM,12.2,5.0,73,30.23,10.0,SE,17.3,-,N/A,,Clear,140,2013-01-26 17:31:00
11:50 AM,12.2,5.0,73,30.22,10.0,SE,12.7,17.3,N/A,,Clear,140,2013-01-26 17:50:00
12:11 PM,15.8,8.6,73,30.20,10.0,SE,15.0,-,N/A,,Clear,130,2013-01-26 18:11:00
12:31 PM,15.8,8.6,73,30.19,10.0,SE,13.8,-,N/A,,Clear,140,2013-01-26 18:31:00
12:50 PM,15.8,6.8,68,30.17,10.0,SE,17.3,-,N/A,,Clear,140,2013-01-26 18:50:00
1:11 PM,17.6,8.6,68,30.16,10.0,SE,12.7,-,N/A,,Clear,140,2013-01-26 19:11:00
1:31 PM,19.4,8.6,63,30.14,10.0,SE,15.0,-,N/A,,Clear,130,2013-01-26 19:31:00
1:51 PM,21.2,10.4,63,30.12,10.0,SE,17.3,24.2,N/A,,Clear,130,2013-01-26 19:51:00
2:10 PM,21.2,10.4,63,30.11,10.0,SE,17.3,21.9,N/A,,Clear,130,2013-01-26 20:10:00
2:31 PM,21.2,10.4,63,30.11,10.0,SE,16.1,-,N/A,,Clear,130,2013-01-26 20:31:00
2:51 PM,21.2,10.4,63,30.12,10.0,SE,12.7,-,N/A,,Clear,130,2013-01-26 20:51:00
3:30 PM,23.0,12.2,63,30.10,10.0,SE,13.8,-,N/A,,Clear,130,2013-01-26 21:30:00
3:51 PM,23.0,12.2,63,30.11,10.0,SE,10.4,-,N/A,,Clear,130,2013-01-26 21:51:00
4:11 PM,23.0,12.2,63,30.11,10.0,SE,10.4,16.1,N/A,,Clear,130,2013-01-26 22:11:00
4:31 PM,23.0,12.2,63,30.10,10.0,SE,9.2,-,N/A,,Clear,130,2013-01-26 22:31:00
4:51 PM,23.0,12.2,63,30.09,10.0,SE,10.4,-,N/A,,Clear,130,2013-01-26 22:51:00
5:11 PM,23.0,12.2,63,30.09,10.0,SE,11.5,16.1,N/A,,Clear,130,2013-01-26 23:11:00
5:31 PM,23.0,14.0,68,30.07,10.0,SE,11.5,-,N/A,,Clear,130,2013-01-26 23:31:00
5:50 PM,23.0,12.2,63,30.07,10.0,SE,13.8,-,N/A,,Clear,140,2013-01-26 23:50:00
6:11 PM,21.2,12.2,68,30.06,10.0,SE,13.8,-,N/A,,Clear,130,2013-01-27 00:11:00
6:31 PM,21.2,12.2,68,30.06,10.0,SE,13.8,-,N/A,,Clear,130,2013-01-27 00:31:00
6:50 PM,21.2,12.2,68,30.06,10.0,SE,13.8,-,N/A,,Clear,130,2013-01-27 00:50:00
7:11 PM,23.0,12.2,63,30.06,10.0,SE,16.1,20.7,N/A,,Clear,130,2013-01-27 01:11:00
7:31 PM,23.0,12.2,63,30.05,10.0,SE,17.3,21.9,N/A,,Clear,140,2013-01-27 01:31:00
7:51 PM,23.0,12.2,63,30.06,10.0,SE,13.8,-,N/A,,Clear,130,2013-01-27 01:51:00
8:11 PM,21.2,12.2,68,30.05,10.0,ESE,10.4,-,N/A,,Clear,110,2013-01-27 02:11:00
8:31 PM,21.2,12.2,68,30.05,10.0,ESE,9.2,-,N/A,,Clear,110,2013-01-27 02:31:00
8:51 PM,21.2,12.2,68,30.04,10.0,ESE,10.4,-,N/A,,Clear,110,2013-01-27 02:51:00
9:10 PM,21.2,12.2,68,30.03,10.0,ESE,12.7,-,N/A,,Clear,120,2013-01-27 03:10:00
9:31 PM,21.2,12.2,68,30.03,10.0,ESE,11.5,-,N/A,,Clear,110,2013-01-27 03:31:00
9:51 PM,21.2,12.2,68,30.02,10.0,ESE,12.7,-,N/A,,Clear,120,2013-01-27 03:51:00
10:10 PM,21.2,12.2,68,30.01,10.0,SE,12.7,-,N/A,,Clear,130,2013-01-27 04:10:00
10:31 PM,21.2,12.2,68,30.01,10.0,SE,13.8,-,N/A,,Clear,130,2013-01-27 04:31:00
10:51 PM,21.2,14.0,74,30.01,10.0,ESE,11.5,-,N/A,,Clear,120,2013-01-27 04:51:00
11:10 PM,23.0,14.0,68,30.01,10.0,ESE,11.5,-,N/A,,Clear,120,2013-01-27 05:10:00
11:31 PM,23.0,14.0,68,30.01,10.0,SE,11.5,-,N/A,,Clear,130,2013-01-27 05:31:00
11:50 PM,23.0,14.0,68,30.01,10.0,SE,12.7,-,N/A,,Clear,130,2013-01-27 05:50:00